OpenBCM V1.07b12 (Linux)

Packet Radio Mailbox

DB0FHN

[JN59NK Nuernberg]

 Login: GUEST





  
I6KZR  > KEPLER   04.02.03 21:50l 1460 Lines 39201 Bytes #999 (0) @ WW
BID : 22178_IK6WID
Read: DB0FHN GUEST
Subj: Old Istantrak Keplerians #035
Path: DB0FHN<DB0RGB<OK0PPL<RZ6HXA<SP7MGD<IK6PYS<I6ZLO<IK6WID
Sent: 030204/2036Z @:IK6WID.#AP.IMAR.ITA.EU #:22178 [MONTE URANO]  FBB7.00i
From: I6KZR@IK6WID.#AP.IMAR.ITA.EU
To  : KEPLER@WW


Satellite: OSCAR 7
Catalog number: 07530
Epoch time:      103034.68804533
Element set:     165 
0Inclination:      101.7638 deg
RA of node:        82.6130 deg
Eccentricity:    0.0012221
1Arg of perigee:   106.3038 deg
Mean anomaly:     253.9378 deg
Mean motion:   12.53564157 rev/day
Decay rate:   -2.9000E-007 rev/day^2
Epoch rev:           29132
Checksum:              276

Satellite: GOES 2
Catalog number: 10061
Epoch time:      103028.56527598
Element set:     70 
Inclination:       14.1264 deg
RA of node:        13.5931 deg
Eccentricity:    0.0013180
Arg of perigee:   196.1337 deg
Mean anomaly:     163.8523 deg
Mean motion:    0.99391768 rev/day
Decay rate:    9.9999E-009 rev/day^2
Epoch rev:            3862
Checksum:              321

Satellite: GOES 3
Catalog number: 10953
Epoch time:      103033.97871479
Element set:     912 
Inclination:       13.4027 deg
RA of node:        17.3505 deg
Eccentricity:    0.0005282
Arg of perigee:   341.1984 deg
Mean anomaly:      18.8202 deg
Mean motion:    1.00278737 rev/day
Decay rate:   -1.0300E-006 rev/day^2
Epoch rev:            4334
Checksum:              271

Satellite: GOES 6
Catalog number: 14050
Epoch time:      103035.09071563
Element set:     417 
Inclination:       10.3815 deg
RA of node:        35.5807 deg
Eccentricity:    0.0003190
Arg of perigee:   349.1855 deg
,Mean anomaly:      10.8902 deg
Mean motion:    1.00298332 rev/day
Decay rate:    4.1000E-007 rev/day^2
Epoch rev:           13049
Checksum:              366

Satellite: OSCAR 10
Catalog number: 14129
Epoch time:      103034.35061340
Element set:     914 
Inclination:       25.9028 deg
RA of node:       166.8331 deg
Eccentricity:    0.6027722
Arg of perigee:   324.8138 deg
Mean anomaly:       7.1176 deg
Mean motion:    2.05866763 rev/day
Decay rate:   -1.4800E-006 rev/day^2
Epoch rev:           11975
Checksum:              285

Satellite: OSCAR 11 (UoSA
Catalog number: 14781
Epoch time:      103034.98783380
Element set:     65 
,Inclination:       98.1148 deg
,RA of node:         8.8018 deg
Eccentricity:    0.0008175
Arg of perigee:   258.7843 deg
Mean anomaly:     101.2450 deg
Mean motion:   14.77947791 rev/day
Decay rate:    1.3259E-005 rev/day^2
Epoch rev:            1408
Checksum:              324

Satellite: NOAA 10
Catalog number: 16969
Epoch time:      103034.96468549
Element set:     650 
Inclination:       98.7275 deg
RA of node:        29.1056 deg
Eccentricity:    0.0013062
Arg of perigee:   126.5056 deg
Mean anomaly:     233.7329 deg
Mean motion:   14.27057606 rev/day
Decay rate:    1.4500E-006 rev/day^2
Epoch rev:           85182
Checksum:              317

,Satellite: GOES 7
Catalog number: 17561
Epoch time:      103013.52827387
Element set:     810 
Inclination:        7.5470 deg
RA of node:        55.7264 deg
Eccentricity:    0.0004064
Arg of perigee:   288.6625 deg
Mean anomaly:     149.4031 deg
Mean motion:    1.00317770 rev/day
Decay rate:    1.1600E-006 rev/day^2
Epoch rev:            4138
Checksum:              275

Satellite: COSMOS 1861
Catalog number: 18129
Epoch time:      103035.44292678
Element set:     197 
Inclination:       82.9251 deg
RA of node:       157.0018 deg
Eccentricity:    0.0010280
Arg of perigee:   269.2032 deg
Mean anomaly:      90.7946 deg
Mean motion:   13.72699058 rev/day
Decay rate:    3.7999E-007 rev/day^2
Epoch rev:           78257
Checksum:              357

Satellite: EUTELSAT 1-F4 
Catalog number: 18351
Epoch time:      103033.74471135
Element set:     33 
Inclination:        7.1639 deg
RA of node:        58.7088 deg
Eccentricity:    0.0008052
Arg of perigee:   194.6441 deg
Mean anomaly:     165.4400 deg
Mean motion:    0.98689338 rev/day
Decay rate:   -1.2100E-006 rev/day^2
Epoch rev:            4252
Checksum:              289

Satellite: NOAA 11
Catalog number: 19531
Epoch time:      103034.94050501
Element set:     488 
Inclination:       98.9027 deg
RA of node:       116.3708 deg
Eccentricity:    0.0010990
Arg of perigee:   242.4321 deg
Mean anomaly:     117.5734 deg
Mean motion:   14.14530094 rev/day
Decay rate:    1.6499E-006 rev/day^2
Epoch rev:           74073
Checksum:              296

Satellite: ASTRA 1A
Catalog number: 19688
Epoch time:      103035.08770958
Element set:     567 
Inclination:        1.3433 deg
RA of node:        95.1507 deg
Eccentricity:    0.0004101
Arg of perigee:   216.5866 deg
Mean anomaly:     218.8252 deg
Mean motion:    1.00271599 rev/day
Decay rate:    2.7999E-007 rev/day^2
Epoch rev:            3205
Checksum:              311

Satellite: OSCAR 14 (UOSA
Catalog number: 20437
Epoch time:      103034.67779670
Element set:     160 
Inclination:       98.2747 deg
RA of node:        79.0013 deg
Eccentricity:    0.0009831
Arg of perigee:   246.6488 deg
Mean anomaly:     113.3666 deg
Mean motion:   14.31232314 rev/day
Decay rate:    1.1099E-006 rev/day^2
Epoch rev:           68036
Checksum:              314

Satellite: OSCAR 15 (UOSA
Catalog number: 20438
Epoch time:      103035.52609891
Element set:     772 
Inclination:       98.2485 deg
RA of node:        68.9915 deg
Eccentricity:    0.0009025
Arg of perigee:   255.8945 deg
Mean anomaly:     104.1246 deg
Mean motion:   14.30193948 rev/day
Decay rate:    1.0200E-006 rev/day^2
Epoch rev:           68015
Checksum:              322

Satellite: OSCAR 16 (PACS
Catalog number: 20439
Epoch time:      103034.69514200
Element set:     849 
Inclination:       98.3203 deg
RA of node:        90.6150 deg
Eccentricity:    0.0010127
Arg of perigee:   252.4969 deg
Mean anomaly:     107.5125 deg
Mean motion:   14.31465252 rev/day
Decay rate:    1.4500E-006 rev/day^2
Epoch rev:           68040
Checksum:              273

Satellite: OSCAR 17 (DOVE
Catalog number: 20440
Epoch time:      103034.89660136
Element set:     738 
Inclination:       98.3387 deg
RA of node:        94.6664 deg
Eccentricity:    0.0010247
Arg of perigee:   251.7914 deg
Mean anomaly:     108.2154 deg
Mean motion:   14.31742804 rev/day
Decay rate:    1.5800E-006 rev/day^2
Epoch rev:           68050
Checksum:              303

Satellite: OSCAR 18 (WEBE
Catalog number: 20441
Epoch time:      103034.95636973
Element set:     14 
Inclination:       98.3383 deg
RA of node:        93.9455 deg
Eccentricity:    0.0010768
Arg of perigee:   251.6453 deg
Mean anomaly:     108.3561 deg
Mean motion:   14.31547177 rev/day
Decay rate:    1.3400E-006 rev/day^2
Epoch rev:           68049
Checksum:              313

Satellite: OSCAR 19 (LUSA
Catalog number: 20442
Epoch time:      103035.21600434
Element set:     955 
Inclination:       98.3480 deg
RA of node:        97.1903 deg
Eccentricity:    0.0011091
Arg of perigee:   251.5282 deg
Mean anomaly:     108.4696 deg
Mean motion:   14.31710215 rev/day
Decay rate:    1.4800E-006 rev/day^2
Epoch rev:           68058
Checksum:              283

Satellite: JAS 1B (FUJI 2
Catalog number: 20480
Epoch time:      103034.96786003
Element set:     482 
Inclination:       99.0442 deg
RA of node:         0.4589 deg
Eccentricity:    0.0540891
Arg of perigee:    36.9217 deg
Mean anomaly:     326.7872 deg
Mean motion:   12.83329048 rev/day
Decay rate:   -2.6999E-007 rev/day^2
Epoch rev:           60864
Checksum:              338

Satellite: HST
Catalog number: 20580
Epoch time:      103034.43025535
Element set:     316 
Inclination:       28.4632 deg
RA of node:       136.4057 deg
Eccentricity:    0.0003759
Arg of perigee:   110.5110 deg
Mean anomaly:     335.4145 deg
Mean motion:   14.97746539 rev/day
Decay rate:    8.4847E-004 rev/day^2
Epoch rev:           50036
Checksum:              284

Satellite: EUTELSAT 2-F1
Catalog number: 20777
Epoch time:      103033.86449529
Element set:     24 
Inclination:        3.4631 deg
RA of node:        84.7049 deg
Eccentricity:    0.0000661
Arg of perigee:   293.1089 deg
Mean anomaly:     142.0363 deg
Mean motion:    1.00270811 rev/day
Decay rate:   -1.0799E-006 rev/day^2
Epoch rev:            2594
Checksum:              401

Satellite: FENGYUN 1B
Catalog number: 20788
Epoch time:      103034.97650134
Element set:     877 
Inclination:       99.0257 deg
RA of node:        17.3021 deg
Eccentricity:    0.0015016
Arg of perigee:   271.7997 deg
Mean anomaly:      88.1447 deg
Mean motion:   14.02136058 rev/day
Decay rate:   -1.6400E-006 rev/day^2
Epoch rev:           63549
Checksum:              309

Satellite: EUTELSAT 2-F2
Catalog number: 21056
Epoch time:      103028.05627895
Element set:     613 
Inclination:        2.6793 deg
RA of node:        88.1781 deg
Eccentricity:    0.0003016
Arg of perigee:   259.4382 deg
Mean anomaly:     207.9268 deg
Mean motion:    1.00269467 rev/day
Decay rate:    1.1600E-006 rev/day^2
Epoch rev:            3166
Checksum:              296

Satellite: INFORMATOR 1
Catalog number: 21087
Epoch time:      103034.85862472
Element set:     616 
Inclination:       82.9436 deg
RA of node:       328.2985 deg
Eccentricity:    0.0034136
Arg of perigee:   293.7174 deg
Mean anomaly:      66.0396 deg
Mean motion:   13.74924662 rev/day
Decay rate:    5.6999E-007 rev/day^2
Epoch rev:           60286
Checksum:              352

Satellite: COSMOS 2123
Catalog number: 21089
Epoch time:      103034.90793433
Element set:     504 
Inclination:       82.9210 deg
RA of node:       192.2493 deg
Eccentricity:    0.0028859
Arg of perigee:   330.0953 deg
Mean anomaly:      29.8552 deg
Mean motion:   13.74402663 rev/day
Decay rate:    6.7000E-007 rev/day^2
Epoch rev:           60177
Checksum:              308

